{"data":{"norad_id":67987,"epoch":"2026-09-19T09:23:04.284384Z","epoch_age_seconds":155374,"freshness":"FRESH","line1":"1 67987U 26039B   26262.39102181  .00015657  00000+0  57699-3 0  9992","line2":"2 67987  43.0004  35.3475 0002877 281.9766  78.0763 15.27593660 31324","mean_motion":15.2759366,"eccentricity":0.0002877,"inclination_deg":43.0004,"raan_deg":35.3475,"arg_perigee_deg":281.9766,"mean_anomaly_deg":78.0763,"bstar":0.00057699,"rev_number":3132,"period_min":94.265905764495,"perigee_km":481.03424191816,"apogee_km":484.98214486243,"semimajor_km":6861.1451933903,"source":"CELESTRAK","updated_at":"2026-09-20T09:00:43.734595Z"}}